SBI2168 URMM-UUDD

Flight info

Callsign SBI2168
Flight time 1h 44m
Altitude 36000
Route LARIN5M LARIN G481 NIRGA N82 RINGU N50 OLOPI OLOPI3N
Aircraft A320/M-SDFGIJ1RWY/LB1

Departure

Time 2026-04-23 14:13
Airport Mineralnye Vody Airport (URMM)

Arrival

Time 2026-04-23 15:57
Airport Domodedovo International Airport (UUDD)
Time Latitude Longitude Altitude Speed Heading
2026-04-23 13:40 44.21753 43.08983 1051 ft 0 kts 212°
2026-04-23 14:02 44.21758 43.08988 1051 ft 4 kts 212°
2026-04-23 14:02 44.21780 43.09008 1051 ft 4 kts 213°
2026-04-23 14:02 44.21803 43.09028 1051 ft 4 kts 206°
2026-04-23 14:03 44.21827 43.09038 1051 ft 4 kts 169°
2026-04-23 14:03 44.21847 43.09021 1051 ft 4 kts 125°
2026-04-23 14:03 44.21855 43.09005 1051 ft 1 kts 123°
2026-04-23 14:03 44.21855 43.09004 1051 ft 0 kts 123°
2026-04-23 14:06 44.21855 43.09005 1051 ft 1 kts 123°
2026-04-23 14:07 44.21837 43.09041 1051 ft 9 kts 128°
2026-04-23 14:07 44.21786 43.09143 1051 ft 8 kts 122°
2026-04-23 14:07 44.21739 43.09244 1051 ft 14 kts 122°
2026-04-23 14:08 44.21680 43.09339 1051 ft 12 kts 133°
2026-04-23 14:08 44.21636 43.09431 1051 ft 11 kts 122°
2026-04-23 14:08 44.21600 43.09511 1051 ft 10 kts 122°
2026-04-23 14:08 44.21558 43.09603 1051 ft 14 kts 122°
2026-04-23 14:09 44.21512 43.09719 1051 ft 13 kts 106°
2026-04-23 14:09 44.21523 43.09838 1051 ft 12 kts 77°
2026-04-23 14:09 44.21541 43.09947 1051 ft 11 kts 77°
2026-04-23 14:09 44.21558 43.10045 1051 ft 9 kts 77°
2026-04-23 14:10 44.21570 43.10119 1051 ft 6 kts 77°
2026-04-23 14:10 44.21576 43.10156 1051 ft 2 kts 77°
2026-04-23 14:10 44.21580 43.10177 1051 ft 4 kts 74°
2026-04-23 14:10 44.21611 43.10228 1051 ft 10 kts 35°
2026-04-23 14:11 44.21676 43.10285 1070 ft 10 kts 32°
2026-04-23 14:11 44.21722 43.10326 1051 ft 5 kts 31°
2026-04-23 14:11 44.21759 43.10326 1052 ft 4 kts 327°
2026-04-23 14:11 44.21767 43.10308 1052 ft 1 kts 302°
2026-04-23 14:12 44.21768 43.10307 1052 ft 0 kts 302°
2026-04-23 14:12 44.21793 43.10251 1053 ft 32 kts 302°
2026-04-23 14:12 44.22046 43.09697 1058 ft 99 kts 302°
2026-04-23 14:12 44.22510 43.08674 1055 ft 152 kts 302°
2026-04-23 14:13 44.23131 43.07301 1358 ft 168 kts 303°
2026-04-23 14:13 44.23755 43.05927 2101 ft 166 kts 303°
2026-04-23 14:13 44.24168 43.05018 2497 ft 167 kts 302°
2026-04-23 14:13 44.24984 43.03215 3285 ft 165 kts 302°
2026-04-23 14:14 44.25597 43.01856 3848 ft 164 kts 301°
2026-04-23 14:14 44.25998 43.00963 4203 ft 164 kts 301°
2026-04-23 14:14 44.26634 42.99548 4481 ft 182 kts 301°
2026-04-23 14:14 44.27351 42.97957 4674 ft 205 kts 301°
2026-04-23 14:15 44.28154 42.96173 4865 ft 229 kts 301°
2026-04-23 14:15 44.29048 42.94187 5209 ft 251 kts 301°
2026-04-23 14:15 44.30053 42.92140 5876 ft 260 kts 314°
2026-04-23 14:15 44.31631 42.90917 6612 ft 267 kts 348°
2026-04-23 14:16 44.33507 42.91017 7343 ft 275 kts 10°
2026-04-23 14:16 44.35344 42.91779 8057 ft 282 kts 18°
2026-04-23 14:16 44.37200 42.92760 8767 ft 288 kts 19°
2026-04-23 14:16 44.39095 42.93751 9472 ft 293 kts 18°
2026-04-23 14:17 44.41055 42.94691 10144 ft 299 kts 15°
2026-04-23 14:17 44.43120 42.95586 10403 ft 321 kts 14°
2026-04-23 14:17 44.45343 42.96471 10550 ft 344 kts 13°
2026-04-23 14:17 44.47726 42.97367 10731 ft 364 kts 12°
2026-04-23 14:18 44.50178 42.98261 11240 ft 372 kts 12°
2026-04-23 14:18 44.52704 42.99178 11841 ft 378 kts 11°
2026-04-23 14:18 44.55275 43.00118 12361 ft 386 kts 11°
2026-04-23 14:18 44.57893 43.01082 12930 ft 392 kts 12°
2026-04-23 14:19 44.60496 43.02377 13491 ft 401 kts 22°
2026-04-23 14:19 44.62971 43.04268 14014 ft 408 kts 28°
2026-04-23 14:19 44.65436 43.06283 14530 ft 413 kts 28°
2026-04-23 14:19 44.67938 43.08318 15028 ft 418 kts 27°
2026-04-23 14:20 44.70472 43.10371 15536 ft 423 kts 27°
2026-04-23 14:20 44.73031 43.12446 16057 ft 427 kts 27°
2026-04-23 14:20 44.75628 43.14557 16572 ft 431 kts 27°
2026-04-23 14:20 44.78240 43.16686 17079 ft 436 kts 26°
2026-04-23 14:21 44.80877 43.18839 17588 ft 441 kts 26°
2026-04-23 14:21 44.83544 43.21021 18094 ft 445 kts 26°
2026-04-23 14:21 44.86235 43.23224 18546 ft 450 kts 26°
2026-04-23 14:21 44.88953 43.25452 19002 ft 454 kts 26°
2026-04-23 14:22 44.91694 43.27700 19459 ft 458 kts 26°
2026-04-23 14:22 44.94422 43.29938 19901 ft 461 kts 26°
2026-04-23 14:22 44.97213 43.32232 20344 ft 465 kts 26°
2026-04-23 14:22 45.00024 43.34542 20790 ft 470 kts 26°
2026-04-23 14:23 45.02892 43.36786 21196 ft 471 kts 20°
2026-04-23 14:23 45.05932 43.38452 21616 ft 467 kts
2026-04-23 14:23 45.09081 43.39432 22022 ft 461 kts 360°
2026-04-23 14:23 45.12258 43.39733 22427 ft 454 kts 350°
2026-04-23 14:24 45.15380 43.39369 22827 ft 447 kts 341°
2026-04-23 14:24 45.18404 43.38473 23215 ft 445 kts 337°
2026-04-23 14:24 45.21442 43.37515 23575 ft 448 kts 337°
2026-04-23 14:24 45.24491 43.36564 23909 ft 450 kts 338°
2026-04-23 14:25 45.27556 43.35619 24290 ft 452 kts 338°
2026-04-23 14:25 45.30641 43.34677 24591 ft 455 kts 337°
2026-04-23 14:25 45.33752 43.33729 24902 ft 457 kts 337°
2026-04-23 14:25 45.36869 43.32777 25216 ft 459 kts 337°
2026-04-23 14:26 45.39996 43.31813 25526 ft 461 kts 337°
2026-04-23 14:26 45.43136 43.30840 25837 ft 462 kts 336°
2026-04-23 14:26 45.46249 43.29871 26139 ft 464 kts 336°
2026-04-23 14:26 45.49411 43.28887 26430 ft 466 kts 336°
2026-04-23 14:27 45.52593 43.27898 26752 ft 468 kts 336°
2026-04-23 14:27 45.55789 43.26902 27009 ft 470 kts 336°
2026-04-23 14:27 45.58995 43.25902 27263 ft 472 kts 336°
2026-04-23 14:27 45.62219 43.24898 27537 ft 474 kts 336°
2026-04-23 14:28 45.65451 43.23894 27787 ft 476 kts 336°
2026-04-23 14:28 45.68692 43.22889 28037 ft 477 kts 336°
2026-04-23 14:28 45.71942 43.21880 28271 ft 479 kts 336°
2026-04-23 14:28 45.75209 43.20868 28508 ft 481 kts 336°
2026-04-23 14:29 45.78498 43.19881 28770 ft 483 kts 336°
2026-04-23 14:29 45.81769 43.18934 28976 ft 485 kts 337°
2026-04-23 14:29 45.85095 43.17995 29238 ft 486 kts 337°
2026-04-23 14:29 45.88408 43.17070 29537 ft 485 kts 337°
2026-04-23 14:30 45.91730 43.16133 29857 ft 484 kts 336°
2026-04-23 14:30 45.95030 43.15184 30102 ft 483 kts 336°
2026-04-23 14:30 45.98285 43.14233 30346 ft 482 kts 336°
2026-04-23 14:30 46.01568 43.13268 30600 ft 481 kts 337°
2026-04-23 14:31 46.04847 43.12308 30859 ft 480 kts 337°
2026-04-23 14:31 46.08127 43.11349 31117 ft 479 kts 338°
2026-04-23 14:31 46.11401 43.10396 31379 ft 478 kts 338°
2026-04-23 14:31 46.14657 43.09447 31642 ft 477 kts 338°
2026-04-23 14:32 46.17918 43.08496 31909 ft 476 kts 338°
2026-04-23 14:32 46.21159 43.07546 32180 ft 475 kts 338°
2026-04-23 14:32 46.24358 43.06608 32443 ft 474 kts 339°
2026-04-23 14:32 46.27593 43.05665 32739 ft 473 kts 339°
2026-04-23 14:33 46.30820 43.04726 32999 ft 472 kts 340°
2026-04-23 14:33 46.34041 43.03786 33264 ft 471 kts 340°
2026-04-23 14:33 46.37252 43.02848 33531 ft 470 kts 340°
2026-04-23 14:33 46.40457 43.01911 33798 ft 469 kts 340°
2026-04-23 14:34 46.43656 43.00971 34018 ft 468 kts 340°
2026-04-23 14:34 46.46846 43.00031 34212 ft 467 kts 340°
2026-04-23 14:34 46.49993 42.99105 34417 ft 467 kts 341°
2026-04-23 14:34 46.53179 42.98168 34620 ft 467 kts 341°
2026-04-23 14:35 46.56366 42.97230 34837 ft 466 kts 341°
2026-04-23 14:35 46.59547 42.96291 35018 ft 466 kts 341°
2026-04-23 14:35 46.62727 42.95349 35191 ft 465 kts 341°
2026-04-23 14:35 46.65901 42.94411 35350 ft 465 kts 341°
2026-04-23 14:36 46.69074 42.93473 35506 ft 465 kts 341°
2026-04-23 14:36 46.72246 42.92533 35667 ft 465 kts 342°
2026-04-23 14:36 46.78556 42.90658 35787 ft 465 kts 342°
2026-04-23 14:37 46.84907 42.88760 35770 ft 464 kts 342°
2026-04-23 14:37 46.91251 42.86865 35768 ft 465 kts 342°
2026-04-23 14:38 46.97598 42.84979 35769 ft 465 kts 342°
2026-04-23 14:38 47.03907 42.83098 35786 ft 465 kts 342°
2026-04-23 14:39 47.10260 42.81191 35761 ft 464 kts 342°
2026-04-23 14:39 47.16586 42.79270 35761 ft 464 kts 342°
2026-04-23 14:40 47.22877 42.77375 35752 ft 465 kts 342°
2026-04-23 14:40 47.29218 42.75471 35782 ft 465 kts 342°
2026-04-23 14:41 47.35561 42.73570 35748 ft 465 kts 342°
2026-04-23 14:41 47.41905 42.71647 35744 ft 465 kts 342°
2026-04-23 14:42 47.48249 42.69727 35747 ft 465 kts 343°
2026-04-23 14:42 47.54558 42.67825 35739 ft 465 kts 342°
2026-04-23 14:43 47.60896 42.65906 35733 ft 464 kts 343°
2026-04-23 14:43 47.67196 42.63995 35733 ft 464 kts 343°
2026-04-23 14:44 47.73520 42.62060 35730 ft 464 kts 343°
2026-04-23 14:44 47.79844 42.60124 35732 ft 464 kts 343°
2026-04-23 14:45 47.86169 42.58192 35722 ft 464 kts 343°
2026-04-23 14:45 47.92497 42.56257 35718 ft 464 kts 343°
2026-04-23 14:46 47.98821 42.54305 35721 ft 464 kts 343°
2026-04-23 14:46 48.05111 42.52363 35712 ft 464 kts 343°
2026-04-23 14:47 48.11450 42.50405 35712 ft 464 kts 343°
2026-04-23 14:47 48.17770 42.48457 35706 ft 464 kts 343°
2026-04-23 14:48 48.24083 42.46365 35703 ft 461 kts 338°
2026-04-23 14:48 48.30216 42.43575 35700 ft 461 kts 338°
2026-04-23 14:49 48.36319 42.40801 35703 ft 461 kts 338°
2026-04-23 14:49 48.42454 42.38010 35692 ft 460 kts 338°
2026-04-23 14:50 48.48579 42.35216 35692 ft 460 kts 338°
2026-04-23 14:50 48.54710 42.32417 35697 ft 460 kts 338°
2026-04-23 14:51 48.60810 42.29620 35687 ft 460 kts 338°
2026-04-23 14:51 48.66943 42.26800 35678 ft 460 kts 338°
2026-04-23 14:52 48.73098 42.23975 35678 ft 460 kts 338°
2026-04-23 14:52 48.79229 42.21161 35676 ft 460 kts 338°
2026-04-23 14:53 48.85355 42.18344 35676 ft 460 kts 338°
2026-04-23 14:53 48.91433 42.15529 35671 ft 459 kts 339°
2026-04-23 14:54 48.97554 42.12680 35661 ft 459 kts 339°
2026-04-23 14:54 49.03673 42.09838 35662 ft 460 kts 340°
2026-04-23 14:55 49.10033 42.08146 35656 ft 465 kts 348°
2026-04-23 14:55 49.16410 42.06802 35653 ft 465 kts 348°
2026-04-23 14:56 49.22820 42.05417 35648 ft 464 kts 348°
2026-04-23 14:56 49.29222 42.04031 35647 ft 465 kts 348°
2026-04-23 14:57 49.35606 42.02658 35642 ft 465 kts 348°
2026-04-23 14:57 49.42008 42.01276 35649 ft 465 kts 348°
2026-04-23 14:58 49.48419 41.99898 35630 ft 464 kts 348°
2026-04-23 14:58 49.53730 41.98759 35622 ft 464 kts 348°
2026-04-23 14:59 49.60144 41.97360 35626 ft 464 kts 348°
2026-04-23 14:59 49.66508 41.95955 35616 ft 464 kts 348°
2026-04-23 15:00 49.72918 41.94559 35621 ft 464 kts 348°
2026-04-23 15:00 49.79319 41.93170 35605 ft 463 kts 348°
2026-04-23 15:01 49.85679 41.91771 35603 ft 463 kts 348°
2026-04-23 15:01 49.92059 41.90360 35591 ft 463 kts 348°
2026-04-23 15:02 49.98467 41.88941 35593 ft 464 kts 348°
2026-04-23 15:02 50.04832 41.87536 35582 ft 463 kts 348°
2026-04-23 15:03 50.11231 41.86124 35584 ft 463 kts 348°
2026-04-23 15:03 50.17621 41.84687 35576 ft 463 kts 348°
2026-04-23 15:04 50.23923 41.82978 35578 ft 461 kts 344°
2026-04-23 15:04 50.30173 41.80752 35565 ft 461 kts 343°
2026-04-23 15:05 50.36443 41.78439 35557 ft 462 kts 343°
2026-04-23 15:05 50.42722 41.76246 35557 ft 462 kts 344°
2026-04-23 15:06 50.49021 41.74108 35551 ft 462 kts 344°
2026-04-23 15:06 50.55272 41.71980 35551 ft 462 kts 344°
2026-04-23 15:07 50.61553 41.69803 35545 ft 462 kts 344°
2026-04-23 15:07 50.67840 41.67604 35547 ft 462 kts 344°
2026-04-23 15:08 50.74119 41.65407 35530 ft 462 kts 344°
2026-04-23 15:09 50.83547 41.62116 35530 ft 462 kts 344°
2026-04-23 15:09 50.89845 41.59908 35542 ft 462 kts 344°
2026-04-23 15:10 50.96090 41.57712 35517 ft 462 kts 344°
2026-04-23 15:10 51.02384 41.55491 35522 ft 462 kts 344°
2026-04-23 15:11 51.08666 41.53261 35521 ft 462 kts 344°
2026-04-23 15:11 51.14912 41.51050 35512 ft 462 kts 344°
2026-04-23 15:12 51.21205 41.48819 35503 ft 463 kts 344°
2026-04-23 15:12 51.27494 41.46564 35507 ft 463 kts 344°
2026-04-23 15:13 51.33758 41.44314 35503 ft 463 kts 344°
2026-04-23 15:13 51.40002 41.42080 35504 ft 463 kts 344°
2026-04-23 15:14 51.46299 41.39826 35502 ft 463 kts 344°
2026-04-23 15:14 51.52595 41.37558 35496 ft 463 kts 344°
2026-04-23 15:15 51.58903 41.35272 35494 ft 463 kts 344°
2026-04-23 15:15 51.65129 41.32885 35487 ft 461 kts 339°
2026-04-23 15:16 51.70828 41.28355 35499 ft 453 kts 321°
2026-04-23 15:16 51.75984 41.22487 35480 ft 454 kts 322°
2026-04-23 15:17 51.81168 41.16593 35481 ft 455 kts 322°
2026-04-23 15:17 51.86340 41.10689 35474 ft 455 kts 321°
2026-04-23 15:18 51.91477 41.04802 35465 ft 455 kts 321°
2026-04-23 15:18 51.96654 40.98857 35482 ft 455 kts 321°
2026-04-23 15:19 52.01834 40.92893 35456 ft 456 kts 321°
2026-04-23 15:19 52.07174 40.87373 35462 ft 458 kts 327°
2026-04-23 15:20 52.11803 40.83132 35448 ft 459 kts 328°
2026-04-23 15:20 52.18295 40.77161 35452 ft 459 kts 327°
2026-04-23 15:21 52.23851 40.72038 35444 ft 459 kts 328°
2026-04-23 15:21 52.29402 40.66894 35435 ft 459 kts 327°
2026-04-23 15:22 52.34956 40.61723 35438 ft 459 kts 327°
2026-04-23 15:22 52.40480 40.56572 35429 ft 459 kts 327°
2026-04-23 15:23 52.46047 40.51370 35427 ft 459 kts 328°
2026-04-23 15:23 52.51601 40.46169 35426 ft 459 kts 328°
2026-04-23 15:24 52.57156 40.40979 35427 ft 459 kts 328°
2026-04-23 15:24 52.62689 40.35813 35418 ft 459 kts 328°
2026-04-23 15:25 52.68248 40.30596 35422 ft 459 kts 328°
2026-04-23 15:25 52.73796 40.25359 35413 ft 459 kts 328°
2026-04-23 15:26 52.79322 40.20136 35408 ft 459 kts 328°
2026-04-23 15:26 52.84871 40.14892 35402 ft 459 kts 328°
2026-04-23 15:27 52.90410 40.09644 35400 ft 459 kts 328°
2026-04-23 15:27 52.95947 40.04358 35397 ft 458 kts 328°
2026-04-23 15:28 53.01474 39.99070 35392 ft 458 kts 328°
2026-04-23 15:28 53.06995 39.93788 35388 ft 458 kts 328°
2026-04-23 15:29 53.12488 39.88521 35382 ft 458 kts 328°
2026-04-23 15:29 53.18018 39.83195 35384 ft 458 kts 328°
2026-04-23 15:30 53.23537 39.77858 35384 ft 457 kts 328°
2026-04-23 15:30 53.29008 39.72534 35378 ft 457 kts 328°
2026-04-23 15:30 53.31764 39.69852 35226 ft 459 kts 328°
2026-04-23 15:31 53.34530 39.67159 34984 ft 459 kts 328°
2026-04-23 15:31 53.37271 39.64487 34739 ft 459 kts 328°
2026-04-23 15:31 53.40033 39.61791 34514 ft 460 kts 328°
2026-04-23 15:31 53.42817 39.59124 34298 ft 460 kts 329°
2026-04-23 15:32 53.45647 39.56609 34066 ft 461 kts 331°
2026-04-23 15:32 53.48522 39.54201 33838 ft 461 kts 332°
2026-04-23 15:32 53.51412 39.51846 33617 ft 462 kts 333°
2026-04-23 15:32 53.54307 39.49492 33394 ft 462 kts 332°
2026-04-23 15:33 53.57204 39.47111 33124 ft 462 kts 332°
2026-04-23 15:33 53.60093 39.44696 32612 ft 463 kts 331°
2026-04-23 15:33 53.62954 39.42266 31551 ft 468 kts 330°
2026-04-23 15:33 53.65861 39.39769 30578 ft 471 kts 330°
2026-04-23 15:34 53.68804 39.37230 29494 ft 476 kts 330°
2026-04-23 15:34 53.71775 39.34664 28104 ft 482 kts 330°
2026-04-23 15:34 53.74737 39.32112 27571 ft 471 kts 330°
2026-04-23 15:34 53.77635 39.29621 26876 ft 464 kts 329°
2026-04-23 15:35 53.80464 39.27188 26197 ft 458 kts 329°
2026-04-23 15:35 53.83299 39.24747 25552 ft 453 kts 329°
2026-04-23 15:35 53.86102 39.22327 24911 ft 449 kts 329°
2026-04-23 15:35 53.88868 39.19938 24278 ft 444 kts 329°
2026-04-23 15:36 53.91613 39.17561 23665 ft 441 kts 329°
2026-04-23 15:36 53.94338 39.15204 23050 ft 437 kts 329°
2026-04-23 15:36 53.97039 39.12865 22372 ft 434 kts 329°
2026-04-23 15:36 53.99683 39.10573 21828 ft 428 kts 329°
2026-04-23 15:37 54.02324 39.08277 21266 ft 423 kts 329°
2026-04-23 15:37 54.04934 39.05998 20753 ft 418 kts 329°
2026-04-23 15:37 54.06639 39.04501 20406 ft 415 kts 329°
2026-04-23 15:37 54.10052 39.01501 19755 ft 410 kts 329°
2026-04-23 15:38 54.12588 38.99275 19279 ft 406 kts 329°
2026-04-23 15:38 54.15056 38.97112 18821 ft 402 kts 329°
2026-04-23 15:38 54.17513 38.94963 18448 ft 397 kts 329°
2026-04-23 15:38 54.19948 38.92827 18345 ft 384 kts 329°
2026-04-23 15:39 54.22293 38.90760 18203 ft 373 kts 329°
2026-04-23 15:39 54.24580 38.88742 17842 ft 368 kts 330°
2026-04-23 15:39 54.26876 38.86760 17416 ft 366 kts 331°
2026-04-23 15:39 54.29129 38.84918 17100 ft 363 kts 332°
2026-04-23 15:40 54.31417 38.83121 16823 ft 362 kts 333°
2026-04-23 15:40 54.33714 38.81354 16547 ft 360 kts 333°
2026-04-23 15:40 54.35993 38.79606 16276 ft 358 kts 333°
2026-04-23 15:40 54.38257 38.77858 16004 ft 355 kts 333°
2026-04-23 15:41 54.40504 38.76106 15727 ft 353 kts 333°
2026-04-23 15:41 54.42734 38.74354 15463 ft 351 kts 333°
2026-04-23 15:41 54.44952 38.72602 15206 ft 349 kts 333°
2026-04-23 15:41 54.47156 38.70852 14963 ft 347 kts 333°
2026-04-23 15:42 54.49300 38.69151 14704 ft 341 kts 333°
2026-04-23 15:42 54.51458 38.67447 14446 ft 339 kts 333°
2026-04-23 15:42 54.53603 38.65754 14194 ft 337 kts 334°
2026-04-23 15:42 54.55731 38.64068 13940 ft 334 kts 334°
2026-04-23 15:43 54.57129 38.62960 13775 ft 333 kts 334°
2026-04-23 15:43 54.59916 38.60747 13443 ft 332 kts 334°
2026-04-23 15:43 54.62009 38.59080 13195 ft 331 kts 333°
2026-04-23 15:43 54.64094 38.57417 12926 ft 328 kts 334°
2026-04-23 15:44 54.65464 38.56322 12740 ft 327 kts 333°
2026-04-23 15:44 54.67527 38.54669 12463 ft 326 kts 333°
2026-04-23 15:44 54.70256 38.52485 12096 ft 324 kts 334°
2026-04-23 15:44 54.71636 38.51383 11919 ft 322 kts 333°
2026-04-23 15:45 54.73665 38.49758 11648 ft 320 kts 334°
2026-04-23 15:45 54.75656 38.48160 11394 ft 316 kts 335°
2026-04-23 15:45 54.77637 38.46567 11129 ft 312 kts 335°
2026-04-23 15:45 54.79604 38.44985 10872 ft 311 kts 335°
2026-04-23 15:46 54.81565 38.43404 10607 ft 309 kts 336°
2026-04-23 15:46 54.83507 38.41840 10344 ft 308 kts 335°
2026-04-23 15:46 54.85451 38.40273 10098 ft 306 kts 336°
2026-04-23 15:46 54.87381 38.38716 9864 ft 301 kts 336°
2026-04-23 15:47 54.89240 38.37210 9736 ft 289 kts 336°
2026-04-23 15:47 54.91042 38.35749 9610 ft 283 kts 336°
2026-04-23 15:47 54.92794 38.34330 9484 ft 281 kts 337°
2026-04-23 15:47 54.94562 38.32902 9364 ft 280 kts 337°
2026-04-23 15:48 54.96325 38.31473 9234 ft 280 kts 336°
2026-04-23 15:48 54.98095 38.30035 9103 ft 280 kts 336°
2026-04-23 15:48 54.99871 38.28591 8750 ft 281 kts 337°
2026-04-23 15:48 55.01637 38.27153 8371 ft 278 kts 336°
2026-04-23 15:49 55.03376 38.25736 7953 ft 277 kts 337°
2026-04-23 15:49 55.05085 38.24338 7778 ft 266 kts 338°
2026-04-23 15:49 55.06747 38.22981 7463 ft 262 kts 338°
2026-04-23 15:49 55.08392 38.21641 7119 ft 259 kts 338°
2026-04-23 15:50 55.10021 38.20313 6746 ft 257 kts 338°
2026-04-23 15:50 55.11639 38.18993 6377 ft 255 kts 338°
2026-04-23 15:50 55.13239 38.17685 6012 ft 253 kts 338°
2026-04-23 15:50 55.14789 38.16409 5810 ft 244 kts 339°
2026-04-23 15:51 55.16288 38.15171 5678 ft 232 kts 339°
2026-04-23 15:51 55.17717 38.13991 5539 ft 222 kts 339°
2026-04-23 15:51 55.19088 38.12858 5354 ft 214 kts 339°
2026-04-23 15:51 55.20435 38.11750 5035 ft 212 kts 340°
2026-04-23 15:52 55.21754 38.10669 4705 ft 211 kts 340°
2026-04-23 15:52 55.23088 38.09575 4399 ft 210 kts 340°
2026-04-23 15:52 55.24352 38.08371 4234 ft 203 kts 335°
2026-04-23 15:52 55.25515 38.07052 3979 ft 193 kts 333°
2026-04-23 15:53 55.26590 38.05781 3726 ft 186 kts 333°
2026-04-23 15:53 55.27622 38.04551 3503 ft 172 kts 333°
2026-04-23 15:53 55.28581 38.03408 3251 ft 162 kts 333°
2026-04-23 15:53 55.29504 38.02310 3001 ft 157 kts 333°
2026-04-23 15:54 55.30391 38.01251 2789 ft 150 kts 332°
2026-04-23 15:54 55.31230 38.00249 2583 ft 141 kts 332°
2026-04-23 15:54 55.32017 37.99309 2415 ft 134 kts 332°
2026-04-23 15:54 55.32774 37.98406 2222 ft 132 kts 332°
2026-04-23 15:55 55.33528 37.97505 2038 ft 130 kts 331°
2026-04-23 15:55 55.34278 37.96608 1851 ft 130 kts 331°
2026-04-23 15:55 55.35027 37.95712 1667 ft 130 kts 330°
2026-04-23 15:55 55.35765 37.94829 1486 ft 130 kts 330°
2026-04-23 15:56 55.36519 37.93926 1302 ft 131 kts 329°
2026-04-23 15:56 55.37274 37.93023 1109 ft 131 kts 328°
2026-04-23 15:56 55.38027 37.92113 936 ft 130 kts 328°
2026-04-23 15:56 55.38770 37.91225 756 ft 130 kts 328°
2026-04-23 15:57 55.39511 37.90333 590 ft 130 kts 328°
2026-04-23 15:57 55.40170 37.89548 566 ft 92 kts 325°
2026-04-23 15:57 55.40552 37.89088 574 ft 37 kts 325°
2026-04-23 15:57 55.40723 37.88884 573 ft 25 kts 326°
2026-04-23 15:58 55.40868 37.88780 576 ft 21 kts 346°
2026-04-23 15:58 55.40998 37.88750 575 ft 11 kts 356°
2026-04-23 15:58 55.41049 37.88795 577 ft 8 kts 66°
2026-04-23 15:58 55.41033 37.88869 579 ft 6 kts 136°
2026-04-23 15:59 55.40997 37.88915 576 ft 5 kts 144°
2026-04-23 15:59 55.40947 37.88975 576 ft 9 kts 146°
2026-04-23 15:59 55.40904 37.89027 576 ft 7 kts 146°
2026-04-23 15:59 55.40846 37.89097 573 ft 12 kts 146°
2026-04-23 16:00 55.40795 37.89193 572 ft 10 kts 117°
2026-04-23 16:00 55.40784 37.89331 571 ft 14 kts 81°
2026-04-23 16:00 55.40830 37.89484 570 ft 14 kts 52°
2026-04-23 16:00 55.40895 37.89616 571 ft 14 kts 53°
2026-04-23 16:01 55.40952 37.89761 573 ft 15 kts 56°
2026-04-23 16:01 55.40991 37.89861 575 ft 9 kts 54°
2026-04-23 16:01 55.41039 37.89920 569 ft 9 kts 18°
2026-04-23 16:01 55.41095 37.89950 569 ft 8 kts 17°
2026-04-23 16:02 55.41135 37.89972 577 ft 3 kts 18°
2026-04-23 16:02 55.41150 37.89980 572 ft 2 kts 17°
2026-04-23 16:02 55.41153 37.89982 574 ft 0 kts 17°